User: anonymous   Login
Location: Albany
(35.0000°S, 118.0000°E)
Time: 14:43:45
(UTC-04:00)
Language:

JAS-1B - Orbit

View from above orbital plane
View from above orbital plane
View from above satellite
View from above satellite

Ground track
Ground track

The orbit data is extracted from the following two-line orbital elements,

1 20480U 90013C   16243.10739525  .00000008  00000-0  94940-4 0  9993
2 20480  99.0215  65.2939 0539836 330.7813 139.9578 12.83412135244388
Epoch (UTC): 30 August 2016 02:34:38
Eccentricity: 0.0539836
inclination: 99.0215°
perigee height: 912 km
apogee height: 1744 km
right ascension of ascending node: 65.2939°
argument of perigee: 330.7813°
revolutions per day: 12.83412135
mean anomaly at epoch: 139.9578°
orbit number at epoch: 24438

The dashed part of the orbit path shows where the satellite is in the earth's shadow,  

DLR